Year,Month,Day,Hour,Minute,Value (Times are PST for temperature in C)
2012,09,30,00,00,7.80
2012,09,30,00,01,7.80
2012,09,30,00,02,7.80
2012,09,30,00,03,7.90
2012,09,30,00,04,7.90
2012,09,30,00,05,7.90
2012,09,30,00,06,8.00
2012,09,30,00,07,8.10
2012,09,30,00,08,8.20
2012,09,30,00,09,8.30
2012,09,30,00,10,8.30
2012,09,30,00,11,8.30
2012,09,30,00,12,8.30
2012,09,30,00,13,8.40
2012,09,30,00,14,8.40
2012,09,30,00,15,8.40
2012,09,30,00,16,8.40
2012,09,30,00,17,8.40
2012,09,30,00,18,8.40
2012,09,30,00,19,8.40
2012,09,30,00,20,8.40
2012,09,30,00,21,8.40
2012,09,30,00,22,8.40
2012,09,30,00,23,8.30
2012,09,30,00,24,8.30
2012,09,30,00,25,8.30
2012,09,30,00,26,8.20
2012,09,30,00,27,8.20
2012,09,30,00,28,8.10
2012,09,30,00,29,8.10
2012,09,30,00,30,8.10
2012,09,30,00,31,8.10
2012,09,30,00,32,8.10
2012,09,30,00,33,8.10
2012,09,30,00,34,8.10
2012,09,30,00,35,8.10
2012,09,30,00,36,8.10
2012,09,30,00,37,8.00
2012,09,30,00,38,8.00
2012,09,30,00,39,8.00
2012,09,30,00,40,8.00
2012,09,30,00,41,8.00
2012,09,30,00,42,7.90
2012,09,30,00,43,7.90
2012,09,30,00,44,7.80
2012,09,30,00,45,7.80
2012,09,30,00,46,7.80
2012,09,30,00,47,7.70
2012,09,30,00,48,7.70
2012,09,30,00,49,7.70
2012,09,30,00,50,7.70
2012,09,30,00,51,7.60
2012,09,30,00,52,7.60
2012,09,30,00,53,7.60
2012,09,30,00,54,7.60
2012,09,30,00,55,7.50
2012,09,30,00,56,7.50
2012,09,30,00,57,7.50
2012,09,30,00,58,7.50
2012,09,30,00,59,7.50
2012,09,30,01,00,7.40
2012,09,30,01,01,7.40
2012,09,30,01,02,7.40
2012,09,30,01,03,7.40
2012,09,30,01,04,7.40
2012,09,30,01,05,7.40
2012,09,30,01,06,7.40
2012,09,30,01,07,7.30
2012,09,30,01,08,7.40
2012,09,30,01,09,7.40
2012,09,30,01,10,7.40
2012,09,30,01,11,7.40
2012,09,30,01,12,7.40
2012,09,30,01,13,7.30
2012,09,30,01,14,7.30
2012,09,30,01,15,7.30
2012,09,30,01,16,7.30
2012,09,30,01,17,7.30
2012,09,30,01,18,7.30
2012,09,30,01,19,7.20
2012,09,30,01,20,7.20
2012,09,30,01,21,7.20
2012,09,30,01,22,7.20
2012,09,30,01,23,7.20
2012,09,30,01,24,7.20
2012,09,30,01,25,7.10
2012,09,30,01,26,7.10
2012,09,30,01,27,7.10
2012,09,30,01,28,7.20
2012,09,30,01,29,7.10
2012,09,30,01,30,7.10
2012,09,30,01,31,7.10
2012,09,30,01,32,7.00
2012,09,30,01,33,7.00
2012,09,30,01,34,7.00
2012,09,30,01,35,7.00
2012,09,30,01,36,7.00
2012,09,30,01,37,7.00
2012,09,30,01,38,7.00
2012,09,30,01,39,7.00
2012,09,30,01,40,7.00
2012,09,30,01,41,7.00
2012,09,30,01,42,7.00
2012,09,30,01,43,7.00
2012,09,30,01,44,6.90
2012,09,30,01,45,6.90
2012,09,30,01,46,6.90
2012,09,30,01,47,6.90
2012,09,30,01,48,6.90
2012,09,30,01,49,7.00
2012,09,30,01,50,7.00
2012,09,30,01,51,7.00
2012,09,30,01,52,7.00
2012,09,30,01,53,6.90
2012,09,30,01,54,6.90
2012,09,30,01,55,6.90
2012,09,30,01,56,6.90
2012,09,30,01,57,6.80
2012,09,30,01,58,6.80
2012,09,30,01,59,6.80
2012,09,30,02,00,6.80
2012,09,30,02,01,6.80
2012,09,30,02,02,6.80
2012,09,30,02,03,6.80
2012,09,30,02,04,6.80
2012,09,30,02,05,6.70
2012,09,30,02,06,6.70
2012,09,30,02,07,6.70
2012,09,30,02,08,6.60
2012,09,30,02,09,6.60
2012,09,30,02,10,6.60
2012,09,30,02,11,6.60
2012,09,30,02,12,6.60
2012,09,30,02,13,6.60
2012,09,30,02,14,6.60
2012,09,30,02,15,6.60
2012,09,30,02,16,6.60
2012,09,30,02,17,6.60
2012,09,30,02,18,6.60
2012,09,30,02,19,6.50
2012,09,30,02,20,6.50
2012,09,30,02,21,6.50
2012,09,30,02,22,6.50
2012,09,30,02,23,6.50
2012,09,30,02,24,6.50
2012,09,30,02,25,6.50
2012,09,30,02,26,6.50
2012,09,30,02,27,6.50
2012,09,30,02,28,6.40
2012,09,30,02,29,6.40
2012,09,30,02,30,6.40
2012,09,30,02,31,6.40
2012,09,30,02,32,6.40
2012,09,30,02,33,6.40
2012,09,30,02,34,6.40
2012,09,30,02,35,6.40
2012,09,30,02,36,6.30
2012,09,30,02,37,6.30
2012,09,30,02,38,6.30
2012,09,30,02,39,6.30
2012,09,30,02,40,6.30
2012,09,30,02,41,6.20
2012,09,30,02,42,6.20
2012,09,30,02,43,6.10
2012,09,30,02,44,6.10
2012,09,30,02,45,6.10
2012,09,30,02,46,6.10
2012,09,30,02,47,6.10
2012,09,30,02,48,6.10
2012,09,30,02,49,6.10
2012,09,30,02,50,6.10
2012,09,30,02,51,6.10
2012,09,30,02,52,6.10
2012,09,30,02,53,6.10
2012,09,30,02,54,6.10
2012,09,30,02,55,6.10
2012,09,30,02,56,6.10
2012,09,30,02,57,6.00
2012,09,30,02,58,6.00
2012,09,30,02,59,6.00
2012,09,30,03,00,6.00
2012,09,30,03,01,5.90
2012,09,30,03,02,5.90
2012,09,30,03,03,5.90
2012,09,30,03,04,5.90
2012,09,30,03,05,5.90
2012,09,30,03,06,5.90
2012,09,30,03,07,6.00
2012,09,30,03,08,6.00
2012,09,30,03,09,6.10
2012,09,30,03,10,6.10
2012,09,30,03,11,6.10
2012,09,30,03,12,6.10
2012,09,30,03,13,6.10
2012,09,30,03,14,6.10
2012,09,30,03,15,6.20
2012,09,30,03,16,6.20
2012,09,30,03,17,6.20
2012,09,30,03,18,6.20
2012,09,30,03,19,6.20
2012,09,30,03,20,6.20
2012,09,30,03,21,6.20
2012,09,30,03,22,6.20
2012,09,30,03,23,6.20
2012,09,30,03,24,6.20
2012,09,30,03,25,6.20
2012,09,30,03,26,6.20
2012,09,30,03,27,6.20
2012,09,30,03,28,6.20
2012,09,30,03,29,6.10
2012,09,30,03,30,6.10
2012,09,30,03,31,6.10
2012,09,30,03,32,6.00
2012,09,30,03,33,6.00
2012,09,30,03,34,5.90
2012,09,30,03,35,5.90
2012,09,30,03,36,5.90
2012,09,30,03,37,5.90
2012,09,30,03,38,5.90
2012,09,30,03,39,5.90
2012,09,30,03,40,5.90
2012,09,30,03,41,5.90
2012,09,30,03,42,5.90
2012,09,30,03,43,5.90
2012,09,30,03,44,5.90
2012,09,30,03,45,5.90
2012,09,30,03,46,5.90
2012,09,30,03,47,5.80
2012,09,30,03,48,5.80
2012,09,30,03,49,5.70
2012,09,30,03,50,5.70
2012,09,30,03,51,5.70
2012,09,30,03,52,5.70
2012,09,30,03,53,5.70
2012,09,30,03,54,5.80
2012,09,30,03,55,5.80
2012,09,30,03,56,5.80
2012,09,30,03,57,5.80
2012,09,30,03,58,5.80
2012,09,30,03,59,5.80
2012,09,30,04,00,5.80
2012,09,30,04,01,5.80
2012,09,30,04,02,5.80
2012,09,30,04,03,5.80
2012,09,30,04,04,5.80
2012,09,30,04,05,5.80
2012,09,30,04,06,5.80
2012,09,30,04,07,5.80
2012,09,30,04,08,5.80
2012,09,30,04,09,5.80
2012,09,30,04,10,5.80
2012,09,30,04,11,5.80
2012,09,30,04,12,5.80
2012,09,30,04,13,5.80
2012,09,30,04,14,5.80
2012,09,30,04,15,5.80
2012,09,30,04,16,5.80
2012,09,30,04,17,5.80
2012,09,30,04,18,5.80
2012,09,30,04,19,5.80
2012,09,30,04,20,5.80
2012,09,30,04,21,5.70
2012,09,30,04,22,5.70
2012,09,30,04,23,5.70
2012,09,30,04,24,5.70
2012,09,30,04,25,5.70
2012,09,30,04,26,5.80
2012,09,30,04,27,5.80
2012,09,30,04,28,5.80
2012,09,30,04,29,5.80
2012,09,30,04,30,5.70
2012,09,30,04,31,5.70
2012,09,30,04,32,5.70
2012,09,30,04,33,5.70
2012,09,30,04,34,5.70
2012,09,30,04,35,5.70
2012,09,30,04,36,5.70
2012,09,30,04,37,5.70
2012,09,30,04,38,5.70
2012,09,30,04,39,5.60
2012,09,30,04,40,5.60
2012,09,30,04,41,5.60
2012,09,30,04,42,5.50
2012,09,30,04,43,5.50
2012,09,30,04,44,5.50
2012,09,30,04,45,5.50
2012,09,30,04,46,5.40
2012,09,30,04,47,5.40
2012,09,30,04,48,5.40
2012,09,30,04,49,5.30
2012,09,30,04,50,5.20
2012,09,30,04,51,5.20
2012,09,30,04,52,5.20
2012,09,30,04,53,5.20
2012,09,30,04,54,5.20
2012,09,30,04,55,5.20
2012,09,30,04,56,5.20
2012,09,30,04,57,5.20
2012,09,30,04,58,5.20
2012,09,30,04,59,5.20
2012,09,30,05,00,5.20
2012,09,30,05,01,5.20
2012,09,30,05,02,5.30
2012,09,30,05,03,5.30
2012,09,30,05,04,5.30
2012,09,30,05,05,5.30
2012,09,30,05,06,5.30
2012,09,30,05,07,5.30
2012,09,30,05,08,5.30
2012,09,30,05,09,5.30
2012,09,30,05,10,5.20
2012,09,30,05,11,5.20
2012,09,30,05,12,5.20
2012,09,30,05,13,5.20
2012,09,30,05,14,5.20
2012,09,30,05,15,5.20
2012,09,30,05,16,5.20
2012,09,30,05,17,5.20
2012,09,30,05,18,5.20
2012,09,30,05,19,5.20
2012,09,30,05,20,5.20
2012,09,30,05,21,5.30
2012,09,30,05,22,5.30
2012,09,30,05,23,5.30
2012,09,30,05,24,5.30
2012,09,30,05,25,5.30
2012,09,30,05,26,5.30
2012,09,30,05,27,5.30
2012,09,30,05,28,5.30
2012,09,30,05,29,5.30
2012,09,30,05,30,5.30
2012,09,30,05,31,5.20
2012,09,30,05,32,5.20
2012,09,30,05,33,5.30
2012,09,30,05,34,5.20
2012,09,30,05,35,5.20
2012,09,30,05,36,5.20
2012,09,30,05,37,5.20
2012,09,30,05,38,5.10
2012,09,30,05,39,5.10
2012,09,30,05,40,5.20
2012,09,30,05,41,5.20
2012,09,30,05,42,5.10
2012,09,30,05,43,5.10
2012,09,30,05,44,5.00
2012,09,30,05,45,5.00
2012,09,30,05,46,5.00
2012,09,30,05,47,5.00
2012,09,30,05,48,5.00
2012,09,30,05,49,4.90
2012,09,30,05,50,4.90
2012,09,30,05,51,4.90
2012,09,30,05,52,4.90
2012,09,30,05,53,4.90
2012,09,30,05,54,4.90
2012,09,30,05,55,4.90
2012,09,30,05,56,4.90
2012,09,30,05,57,4.90
2012,09,30,05,58,4.80
2012,09,30,05,59,4.80
2012,09,30,06,00,4.70
2012,09,30,06,01,4.70
2012,09,30,06,02,4.70
2012,09,30,06,03,4.70
2012,09,30,06,04,4.60
2012,09,30,06,05,4.60
2012,09,30,06,06,4.60
2012,09,30,06,07,4.60
2012,09,30,06,08,4.60
2012,09,30,06,09,4.70
2012,09,30,06,10,4.60
2012,09,30,06,11,4.60
2012,09,30,06,12,4.70
2012,09,30,06,13,4.70
2012,09,30,06,14,4.70
2012,09,30,06,15,4.70
2012,09,30,06,16,4.70
2012,09,30,06,17,4.70
2012,09,30,06,18,4.70
2012,09,30,06,19,4.70
2012,09,30,06,20,4.70
2012,09,30,06,21,4.70
2012,09,30,06,22,4.70
2012,09,30,06,23,4.70
2012,09,30,06,24,4.70
2012,09,30,06,25,4.70
2012,09,30,06,26,4.70
2012,09,30,06,27,4.70
2012,09,30,06,28,4.70
2012,09,30,06,29,4.60
2012,09,30,06,30,4.60
2012,09,30,06,31,4.60
2012,09,30,06,32,4.60
2012,09,30,06,33,4.70
2012,09,30,06,34,4.70
2012,09,30,06,35,4.70
2012,09,30,06,36,4.60
2012,09,30,06,37,4.60
2012,09,30,06,38,4.60
2012,09,30,06,39,4.50
2012,09,30,06,40,4.50
2012,09,30,06,41,4.50
2012,09,30,06,42,4.40
2012,09,30,06,43,4.50
2012,09,30,06,44,4.50
2012,09,30,06,45,4.50
2012,09,30,06,46,4.50
2012,09,30,06,47,4.50
2012,09,30,06,48,4.50
2012,09,30,06,49,4.40
2012,09,30,06,50,4.40
2012,09,30,06,51,4.40
2012,09,30,06,52,4.40
2012,09,30,06,53,4.40
2012,09,30,06,54,4.50
2012,09,30,06,55,4.50
2012,09,30,06,56,4.50
2012,09,30,06,57,4.50
2012,09,30,06,58,4.40
2012,09,30,06,59,4.40
2012,09,30,07,00,4.40
2012,09,30,07,01,4.30
2012,09,30,07,02,4.30
2012,09,30,07,03,4.30
2012,09,30,07,04,4.30
2012,09,30,07,05,4.30
2012,09,30,07,06,4.30
2012,09,30,07,07,4.20
2012,09,30,07,08,4.20
2012,09,30,07,09,4.20
2012,09,30,07,10,4.20
2012,09,30,07,11,4.20
2012,09,30,07,12,4.20
2012,09,30,07,13,4.30
2012,09,30,07,14,4.30
2012,09,30,07,15,4.40
2012,09,30,07,16,4.40
2012,09,30,07,17,4.40
2012,09,30,07,18,4.50
2012,09,30,07,19,4.60
2012,09,30,07,20,4.60
2012,09,30,07,21,4.70
2012,09,30,07,22,4.70
2012,09,30,07,23,4.70
2012,09,30,07,24,4.70
2012,09,30,07,25,4.70
2012,09,30,07,26,4.70
2012,09,30,07,27,4.70
2012,09,30,07,28,4.70
2012,09,30,07,29,4.70
2012,09,30,07,30,4.60
2012,09,30,07,31,4.60
2012,09,30,07,32,4.50
2012,09,30,07,33,4.50
2012,09,30,07,34,4.50
2012,09,30,07,35,4.40
2012,09,30,07,36,4.40
2012,09,30,07,37,4.40
2012,09,30,07,38,4.50
2012,09,30,07,39,4.50
2012,09,30,07,40,4.50
2012,09,30,07,41,4.60
2012,09,30,07,42,4.60
2012,09,30,07,43,4.70
2012,09,30,07,44,4.80
2012,09,30,07,45,4.80
2012,09,30,07,46,4.80
2012,09,30,07,47,4.90
2012,09,30,07,48,4.90
2012,09,30,07,49,4.90
2012,09,30,07,50,4.90
2012,09,30,07,51,4.90
2012,09,30,07,52,4.90
2012,09,30,07,53,4.90
2012,09,30,07,54,4.90
2012,09,30,07,55,4.90
2012,09,30,07,56,4.90
2012,09,30,07,57,4.90
2012,09,30,07,58,4.80
2012,09,30,07,59,4.80
2012,09,30,08,00,4.90
2012,09,30,08,01,4.90
2012,09,30,08,02,4.90
2012,09,30,08,03,4.90
2012,09,30,08,04,5.00
2012,09,30,08,05,5.00
2012,09,30,08,06,5.10
2012,09,30,08,07,5.20
2012,09,30,08,08,5.20
2012,09,30,08,09,5.30
2012,09,30,08,10,5.30
2012,09,30,08,11,5.30
2012,09,30,08,12,5.40
2012,09,30,08,13,5.40
2012,09,30,08,14,5.50
2012,09,30,08,15,5.60
2012,09,30,08,16,5.60
2012,09,30,08,17,5.70
2012,09,30,08,18,5.70
2012,09,30,08,19,5.70
2012,09,30,08,20,5.70
2012,09,30,08,21,5.80
2012,09,30,08,22,5.80
2012,09,30,08,23,5.80
2012,09,30,08,24,5.90
2012,09,30,08,25,5.90
2012,09,30,08,26,6.00
2012,09,30,08,27,6.00
2012,09,30,08,28,6.10
2012,09,30,08,29,6.10
2012,09,30,08,30,6.10
2012,09,30,08,31,6.10
2012,09,30,08,32,6.20
2012,09,30,08,33,6.20
2012,09,30,08,34,6.20
2012,09,30,08,35,6.20
2012,09,30,08,36,6.20
2012,09,30,08,37,6.30
2012,09,30,08,38,6.30
2012,09,30,08,39,6.30
2012,09,30,08,40,6.40
2012,09,30,08,41,6.50
2012,09,30,08,42,6.50
2012,09,30,08,43,6.60
2012,09,30,08,44,6.70
2012,09,30,08,45,6.70
2012,09,30,08,46,6.80
2012,09,30,08,47,6.90
2012,09,30,08,48,7.00
2012,09,30,08,49,7.10
2012,09,30,08,50,7.20
2012,09,30,08,51,7.30
2012,09,30,08,52,7.40
2012,09,30,08,53,7.50
2012,09,30,08,54,7.60
2012,09,30,08,55,7.70
2012,09,30,08,56,7.80
2012,09,30,08,57,7.80
2012,09,30,08,58,7.90
2012,09,30,08,59,8.00
2012,09,30,09,00,8.10
2012,09,30,09,01,8.20
2012,09,30,09,02,8.30
2012,09,30,09,03,8.30
2012,09,30,09,04,8.40
2012,09,30,09,05,8.40
2012,09,30,09,06,8.40
2012,09,30,09,07,8.50
2012,09,30,09,08,8.50
2012,09,30,09,09,8.60
2012,09,30,09,10,8.60
2012,09,30,09,11,8.70
2012,09,30,09,12,8.70
2012,09,30,09,13,8.80
2012,09,30,09,14,8.90
2012,09,30,09,15,9.00
2012,09,30,09,16,9.00
2012,09,30,09,17,9.10
2012,09,30,09,18,9.20
2012,09,30,09,19,9.30
2012,09,30,09,20,9.50
2012,09,30,09,21,9.60
2012,09,30,09,22,9.70
2012,09,30,09,23,9.80
2012,09,30,09,24,9.80
2012,09,30,09,25,9.90
2012,09,30,09,26,10.00
2012,09,30,09,27,10.10
2012,09,30,09,28,10.20
2012,09,30,09,29,10.30
2012,09,30,09,30,10.40
2012,09,30,09,31,10.50
2012,09,30,09,32,10.60
2012,09,30,09,33,10.70
2012,09,30,09,34,10.80
2012,09,30,09,35,10.90
2012,09,30,09,36,10.90
2012,09,30,09,37,11.00
2012,09,30,09,38,11.00
2012,09,30,09,39,11.10
2012,09,30,09,40,11.10
2012,09,30,09,41,11.20
2012,09,30,09,42,11.30
2012,09,30,09,43,11.30
2012,09,30,09,44,11.40
2012,09,30,09,45,11.50
2012,09,30,09,46,11.60
2012,09,30,09,47,11.60
2012,09,30,09,48,11.70
2012,09,30,09,49,11.80
2012,09,30,09,50,11.80
2012,09,30,09,51,11.80
2012,09,30,09,52,11.90
2012,09,30,09,53,11.90
2012,09,30,09,54,11.90
2012,09,30,09,55,11.90
2012,09,30,09,56,11.90
2012,09,30,09,57,12.00
2012,09,30,09,58,12.00
2012,09,30,09,59,12.10
2012,09,30,10,00,12.10
2012,09,30,10,01,12.20
2012,09,30,10,02,12.20
2012,09,30,10,03,12.30
2012,09,30,10,04,12.30
2012,09,30,10,05,12.40
2012,09,30,10,06,12.40
2012,09,30,10,07,12.50
2012,09,30,10,08,12.50
2012,09,30,10,09,12.60
2012,09,30,10,10,12.60
2012,09,30,10,11,12.70
2012,09,30,10,12,12.70
2012,09,30,10,13,12.80
2012,09,30,10,14,12.80
2012,09,30,10,15,12.80
2012,09,30,10,16,12.90
2012,09,30,10,17,12.90
2012,09,30,10,18,12.90
2012,09,30,10,19,13.00
2012,09,30,10,20,13.00
2012,09,30,10,21,13.10
2012,09,30,10,22,13.10
2012,09,30,10,23,13.20
2012,09,30,10,24,13.20
2012,09,30,10,25,13.20
2012,09,30,10,26,13.20
2012,09,30,10,27,13.30
2012,09,30,10,28,13.30
2012,09,30,10,29,13.30
2012,09,30,10,30,13.30
2012,09,30,10,31,13.30
2012,09,30,10,32,13.30
2012,09,30,10,33,13.30
2012,09,30,10,34,13.30
2012,09,30,10,35,13.30
2012,09,30,10,36,13.40
2012,09,30,10,37,13.40
2012,09,30,10,38,13.40
2012,09,30,10,39,13.40
2012,09,30,10,40,13.50
2012,09,30,10,41,13.50
2012,09,30,10,42,13.50
2012,09,30,10,43,13.60
2012,09,30,10,44,13.60
2012,09,30,10,45,13.60
2012,09,30,10,46,13.50
2012,09,30,10,47,13.50
2012,09,30,10,48,13.60
2012,09,30,10,49,13.60
2012,09,30,10,50,13.70
2012,09,30,10,51,13.70
2012,09,30,10,52,13.70
2012,09,30,10,53,13.70
2012,09,30,10,54,13.80
2012,09,30,10,55,13.80
2012,09,30,10,56,13.90
2012,09,30,10,57,13.90
2012,09,30,10,58,14.00
2012,09,30,10,59,14.10
2012,09,30,11,00,14.10
2012,09,30,11,01,14.10
2012,09,30,11,02,14.10
2012,09,30,11,03,14.10
2012,09,30,11,04,14.10
2012,09,30,11,05,14.10
2012,09,30,11,06,14.00
2012,09,30,11,07,14.00
2012,09,30,11,08,13.90
2012,09,30,11,09,13.90
2012,09,30,11,10,13.80
2012,09,30,11,11,13.80
2012,09,30,11,12,13.80
2012,09,30,11,13,13.70
2012,09,30,11,14,13.70
2012,09,30,11,15,13.60
2012,09,30,11,16,13.60
2012,09,30,11,17,13.50
2012,09,30,11,18,13.50
2012,09,30,11,19,13.40
2012,09,30,11,20,13.40
2012,09,30,11,21,13.40
2012,09,30,11,22,13.40
2012,09,30,11,23,13.40
2012,09,30,11,24,13.50
2012,09,30,11,25,13.60
2012,09,30,11,26,13.60
2012,09,30,11,27,13.70
2012,09,30,11,28,13.70
2012,09,30,11,29,13.70
2012,09,30,11,30,13.80
2012,09,30,11,31,13.80
2012,09,30,11,32,13.80
2012,09,30,11,33,13.90
2012,09,30,11,34,13.90
2012,09,30,11,35,13.90
2012,09,30,11,36,13.90
2012,09,30,11,37,13.90
2012,09,30,11,38,13.90
2012,09,30,11,39,13.90
2012,09,30,11,40,13.90
2012,09,30,11,41,13.90
2012,09,30,11,42,13.90
2012,09,30,11,43,13.90
2012,09,30,11,44,13.90
2012,09,30,11,45,13.90
2012,09,30,11,46,13.80
2012,09,30,11,47,13.80
2012,09,30,11,48,13.80
2012,09,30,11,49,13.90
2012,09,30,11,50,13.90
2012,09,30,11,51,13.90
2012,09,30,11,52,13.90
2012,09,30,11,53,13.90
2012,09,30,11,54,13.90
2012,09,30,11,55,13.80
2012,09,30,11,56,13.80
2012,09,30,11,57,13.80
2012,09,30,11,58,13.80
2012,09,30,11,59,13.80
2012,09,30,12,00,13.80
2012,09,30,12,01,13.80
2012,09,30,12,02,13.80
2012,09,30,12,03,13.80
2012,09,30,12,04,13.70
2012,09,30,12,05,13.70
2012,09,30,12,06,13.70
2012,09,30,12,07,13.70
2012,09,30,12,08,13.70
2012,09,30,12,09,13.70
2012,09,30,12,10,13.70
2012,09,30,12,11,13.70
2012,09,30,12,12,13.70
2012,09,30,12,13,13.70
2012,09,30,12,14,13.80
2012,09,30,12,15,13.80
2012,09,30,12,16,13.90
2012,09,30,12,17,13.90
2012,09,30,12,18,13.90
2012,09,30,12,19,14.00
2012,09,30,12,20,14.10
2012,09,30,12,21,14.20
2012,09,30,12,22,14.20
2012,09,30,12,23,14.40
2012,09,30,12,24,14.50
2012,09,30,12,25,14.60
2012,09,30,12,26,14.70
2012,09,30,12,27,14.70
2012,09,30,12,28,14.80
2012,09,30,12,29,14.80
2012,09,30,12,30,14.80
2012,09,30,12,31,14.70
2012,09,30,12,32,14.70
2012,09,30,12,33,14.70
2012,09,30,12,34,14.70
2012,09,30,12,35,14.60
2012,09,30,12,36,14.60
2012,09,30,12,37,14.60
2012,09,30,12,38,14.60
2012,09,30,12,39,14.50
2012,09,30,12,40,14.50
2012,09,30,12,41,14.50
2012,09,30,12,42,14.50
2012,09,30,12,43,14.50
2012,09,30,12,44,14.50
2012,09,30,12,45,14.60
2012,09,30,12,46,14.60
2012,09,30,12,47,14.70
2012,09,30,12,48,14.70
2012,09,30,12,49,14.80
2012,09,30,12,50,14.80
2012,09,30,12,51,14.90
2012,09,30,12,52,14.90
2012,09,30,12,53,14.80
2012,09,30,12,54,14.80
2012,09,30,12,55,14.80
2012,09,30,12,56,14.90
2012,09,30,12,57,14.90
2012,09,30,12,58,15.00
2012,09,30,12,59,14.90
2012,09,30,13,00,14.90
2012,09,30,13,01,14.80
2012,09,30,13,02,14.80
2012,09,30,13,03,14.80
2012,09,30,13,04,14.80
2012,09,30,13,05,14.70
2012,09,30,13,06,14.70
2012,09,30,13,07,14.60
2012,09,30,13,08,14.60
2012,09,30,13,09,14.60
2012,09,30,13,10,14.60
2012,09,30,13,11,14.60
2012,09,30,13,12,14.60
2012,09,30,13,13,14.60
2012,09,30,13,14,14.70
2012,09,30,13,15,14.70
2012,09,30,13,16,14.70
2012,09,30,13,17,14.70
2012,09,30,13,18,14.80
2012,09,30,13,19,14.80
2012,09,30,13,20,14.90
2012,09,30,13,21,15.00
2012,09,30,13,22,15.00
2012,09,30,13,23,15.10
2012,09,30,13,24,15.20
2012,09,30,13,25,15.20
2012,09,30,13,26,15.20
2012,09,30,13,27,15.20
2012,09,30,13,28,15.20
2012,09,30,13,29,15.10
2012,09,30,13,30,15.10
2012,09,30,13,31,15.10
2012,09,30,13,32,15.10
2012,09,30,13,33,15.10
2012,09,30,13,34,15.10
2012,09,30,13,35,15.20
2012,09,30,13,36,15.30
2012,09,30,13,37,15.30
2012,09,30,13,38,15.40
2012,09,30,13,39,15.50
2012,09,30,13,40,15.50
2012,09,30,13,41,15.60
2012,09,30,13,42,15.70
2012,09,30,13,43,15.70
2012,09,30,13,44,15.70
2012,09,30,13,45,15.60
2012,09,30,13,46,15.60
2012,09,30,13,47,15.60
2012,09,30,13,48,15.50
2012,09,30,13,49,15.40
2012,09,30,13,50,15.30
2012,09,30,13,51,15.30
2012,09,30,13,52,15.30
2012,09,30,13,53,15.30
2012,09,30,13,54,15.30
2012,09,30,13,55,15.30
2012,09,30,13,56,15.30
2012,09,30,13,57,15.30
2012,09,30,13,58,15.30
2012,09,30,13,59,15.30
2012,09,30,14,00,15.40
2012,09,30,14,01,15.40
2012,09,30,14,02,15.50
2012,09,30,14,03,15.50
2012,09,30,14,04,15.60
2012,09,30,14,05,15.70
2012,09,30,14,06,15.70
2012,09,30,14,07,15.70
2012,09,30,14,08,15.70
2012,09,30,14,09,15.70
2012,09,30,14,10,15.80
2012,09,30,14,11,15.80
2012,09,30,14,12,15.80
2012,09,30,14,13,15.90
2012,09,30,14,14,15.80
2012,09,30,14,15,15.80
2012,09,30,14,16,15.70
2012,09,30,14,17,15.70
2012,09,30,14,18,15.60
2012,09,30,14,19,15.60
2012,09,30,14,20,15.60
2012,09,30,14,21,15.60
2012,09,30,14,22,15.70
2012,09,30,14,23,15.70
2012,09,30,14,24,15.80
2012,09,30,14,25,15.80
2012,09,30,14,26,15.90
2012,09,30,14,27,15.90
2012,09,30,14,28,15.90
2012,09,30,14,29,15.90
2012,09,30,14,30,15.80
2012,09,30,14,31,15.80
2012,09,30,14,32,15.70
2012,09,30,14,33,15.70
2012,09,30,14,34,15.70
2012,09,30,14,35,15.60
2012,09,30,14,36,15.60
2012,09,30,14,37,15.60
2012,09,30,14,38,15.50
2012,09,30,14,39,15.50
2012,09,30,14,40,15.40
2012,09,30,14,41,15.40
2012,09,30,14,42,15.30
2012,09,30,14,43,15.20
2012,09,30,14,44,15.20
2012,09,30,14,45,15.10
2012,09,30,14,46,15.00
2012,09,30,14,47,15.00
2012,09,30,14,48,15.00
2012,09,30,14,49,15.00
2012,09,30,14,50,15.10
2012,09,30,14,51,15.20
2012,09,30,14,52,15.30
2012,09,30,14,53,15.50
2012,09,30,14,54,15.60
2012,09,30,14,55,15.80
2012,09,30,14,56,15.90
2012,09,30,14,57,16.10
2012,09,30,14,58,16.20
2012,09,30,14,59,16.30
2012,09,30,15,00,16.30
2012,09,30,15,01,16.40
2012,09,30,15,02,16.40
2012,09,30,15,03,16.40
2012,09,30,15,04,16.40
2012,09,30,15,05,16.30
2012,09,30,15,06,16.30
2012,09,30,15,07,16.20
2012,09,30,15,08,16.00
2012,09,30,15,09,15.90
2012,09,30,15,10,15.70
2012,09,30,15,11,15.60
2012,09,30,15,12,15.50
2012,09,30,15,13,15.50
2012,09,30,15,14,15.40
2012,09,30,15,15,15.40
2012,09,30,15,16,15.40
2012,09,30,15,17,15.50
2012,09,30,15,18,15.60
2012,09,30,15,19,15.60
2012,09,30,15,20,15.80
2012,09,30,15,21,15.80
2012,09,30,15,22,15.90
2012,09,30,15,23,16.00
2012,09,30,15,24,16.10
2012,09,30,15,25,16.20
2012,09,30,15,26,16.30
2012,09,30,15,27,16.30
2012,09,30,15,28,16.30
2012,09,30,15,29,16.30
2012,09,30,15,30,16.30
2012,09,30,15,31,16.30
2012,09,30,15,32,16.30
2012,09,30,15,33,16.40
2012,09,30,15,34,16.50
2012,09,30,15,35,16.50
2012,09,30,15,36,16.50
2012,09,30,15,37,16.60
2012,09,30,15,38,16.60
2012,09,30,15,39,16.60
2012,09,30,15,40,16.60
2012,09,30,15,41,16.60
2012,09,30,15,42,16.60
2012,09,30,15,43,16.70
2012,09,30,15,44,16.70
2012,09,30,15,45,16.70
2012,09,30,15,46,16.70
2012,09,30,15,47,16.70
2012,09,30,15,48,16.70
2012,09,30,15,49,16.70
2012,09,30,15,50,16.70
2012,09,30,15,51,16.70
2012,09,30,15,52,16.70
2012,09,30,15,53,16.70
2012,09,30,15,54,16.70
2012,09,30,15,55,16.70
2012,09,30,15,56,16.70
2012,09,30,15,57,16.70
2012,09,30,15,58,16.70
2012,09,30,15,59,16.70
2012,09,30,16,00,16.70
2012,09,30,16,01,16.70
2012,09,30,16,02,16.70
2012,09,30,16,03,16.70
2012,09,30,16,04,16.80
2012,09,30,16,05,16.80
2012,09,30,16,06,16.80
2012,09,30,16,07,16.80
2012,09,30,16,08,16.80
2012,09,30,16,09,16.80
2012,09,30,16,10,16.80
2012,09,30,16,11,16.80
2012,09,30,16,12,16.90
2012,09,30,16,13,16.80
2012,09,30,16,14,16.80
2012,09,30,16,15,16.70
2012,09,30,16,16,16.60
2012,09,30,16,17,16.50
2012,09,30,16,18,16.40
2012,09,30,16,19,16.30
2012,09,30,16,20,16.20
2012,09,30,16,21,16.20
2012,09,30,16,22,16.10
2012,09,30,16,23,16.00
2012,09,30,16,24,15.90
2012,09,30,16,25,15.90
2012,09,30,16,26,15.90
2012,09,30,16,27,15.90
2012,09,30,16,28,15.90
2012,09,30,16,29,15.80
2012,09,30,16,30,15.80
2012,09,30,16,31,15.80
2012,09,30,16,32,15.70
2012,09,30,16,33,15.70
2012,09,30,16,34,15.60
2012,09,30,16,35,15.50
2012,09,30,16,36,15.50
2012,09,30,16,37,15.40
2012,09,30,16,38,15.30
2012,09,30,16,39,15.30
2012,09,30,16,40,15.20
2012,09,30,16,41,15.20
2012,09,30,16,42,15.10
2012,09,30,16,43,15.10
2012,09,30,16,44,15.10
2012,09,30,16,45,15.10
2012,09,30,16,46,15.00
2012,09,30,16,47,15.00
2012,09,30,16,48,15.00
2012,09,30,16,49,15.00
2012,09,30,16,50,14.90
2012,09,30,16,51,14.90
2012,09,30,16,52,14.90
2012,09,30,16,53,14.90
2012,09,30,16,54,14.80
2012,09,30,16,55,14.80
2012,09,30,16,56,14.80
2012,09,30,16,57,14.80
2012,09,30,16,58,14.80
2012,09,30,16,59,14.70
2012,09,30,17,00,14.70
2012,09,30,17,01,14.70
2012,09,30,17,02,14.70
2012,09,30,17,03,14.70
2012,09,30,17,04,14.70
2012,09,30,17,05,14.70
2012,09,30,17,06,14.70
2012,09,30,17,07,14.70
2012,09,30,17,08,14.70
2012,09,30,17,09,14.70
2012,09,30,17,10,14.70
2012,09,30,17,11,14.60
2012,09,30,17,12,14.60
2012,09,30,17,13,14.60
2012,09,30,17,14,14.60
2012,09,30,17,15,14.50
2012,09,30,17,16,14.40
2012,09,30,17,17,14.40
2012,09,30,17,18,14.40
2012,09,30,17,19,14.30
2012,09,30,17,20,14.30
2012,09,30,17,21,14.30
2012,09,30,17,22,14.30
2012,09,30,17,23,14.20
2012,09,30,17,24,14.20
2012,09,30,17,25,14.20
2012,09,30,17,26,14.10
2012,09,30,17,27,14.10
2012,09,30,17,28,14.10
2012,09,30,17,29,14.10
2012,09,30,17,30,14.10
2012,09,30,17,31,14.00
2012,09,30,17,32,14.00
2012,09,30,17,33,14.00
2012,09,30,17,34,14.00
2012,09,30,17,35,14.00
2012,09,30,17,36,14.00
2012,09,30,17,37,14.00
2012,09,30,17,38,14.00
2012,09,30,17,39,14.00
2012,09,30,17,40,14.00
2012,09,30,17,41,13.90
2012,09,30,17,42,13.90
2012,09,30,17,43,13.90
2012,09,30,17,44,13.80